Regional Weather Roundup
Issued by NWS Newport/Morehead, NC

Current Version | Previous Version | Graphics & Text | Print | Product List | Glossary On
Versions: 1 2 3 4 5 6 7 8 9 10 11 12 13 14 15 16 17 18 19 20 21 22 23 24 25 26 27 28 29 30 31 32 33 34 35 36 37 38 39 40 41 42 43 44 45 46 47 48 49 50
000 ASUS42 KMHX 300910 RWRMHX WEATHER ROUNDUP FOR EASTERN NORTH CAROLINA NATIONAL WEATHER SERVICE NEWPORT/MOREHEAD CITY NC 500 AM EDT WED JUL 30 2014 NOTE: "FAIR" INDICATES FEW OR NO CLOUDS BELOW 12,000 FEET WITH NO SIGNIFICANT WEATHER AND/OR OBSTRUCTIONS TO VISIBILITY NCZ015>017-031-032-045>047-102-103-301000- NORTH COAST CITY SKY/WX TMP DP RH WIND PRES REMARKS EDENTON CLEAR 63 62 96 CALM 30.00R ELIZABETH CITY CLEAR 63 61 93 NW3 30.01R KITTY HAWK SUNNY 71 59 64 CALM 29.98R MANTEO NOT AVBL $$ NCZ045>047-081-094-103-104-301000- CENTRAL COAST CITY SKY/WX TMP DP RH WIND PRES REMARKS FRISCO MOCLDY 73 64 73 NE6 29.98R SWANQUARTER N/A 68 N/A N/A NE3 29.94S $$ NCZ095-097-098-100-101-301000- SOUTHERN COAST CITY SKY/WX TMP DP RH WIND PRES REMARKS BEAUFORT CLEAR 72 65 78 NE5 29.97S CEDAR ISLAND N/A 77 N/A N/A NE7G15 30.00S JACKSONVILLE CLEAR 68 66 93 N3 29.98R NEWPORT NOT AVBL PINEY ISLAND SUNNY 77 66 68 E9 29.97S WILMINGTON CLEAR 69 67 93 NE5 29.97R $$ NCZ011>013-027>030-043-044-078>080-089-090>093-098-301000- COASTAL PLAIN CITY SKY/WX TMP DP RH WIND PRES REMARKS AHOSKIE PTCLDY 60 58 94 CALM N/A CLINTON CLEAR 64 63 98 CALM 29.99S ELIZABETHTOWN CLEAR 65 64 95 CALM 29.98S GOLDSBORO CLEAR 64 63 98 E2 29.98R GREENVILLE CLEAR 63 63 100 N3 30.02R FOG HAVELOCK CLEAR 70 66 87 MISG 29.99R KENANSVILLE CLEAR 62 61 95 CALM 30.00R KINSTON CLEAR 64 63 97 CALM 30.00R NEW BERN CLEAR 72 65 78 NE6 29.99S RICHLANDS CLEAR 64 61 88 CALM 29.98S ROANOKE RAPIDS NOT AVBL ROCKY MOUNT PTCLDY 63 61 93 NE5 30.01R WASHINGTON CLEAR 63 62 95 CALM 30.00R WHITEVILLE CLEAR 67 65 95 CALM 29.97S $$ AMZ130-135-150-152-154-156-158-170-250-252-270-ANZ085-086-088-633-658-670-301000- MARINE OBSERVATIONS STATION/POSITION TIME TEMP WIND PRES WAVE SWELL AIR SEA DIR/SP/G HT/PER HT/PER (UTC) (F) (DEG/KT/KT) (MB) (FT/S) (FT/S) CHESAPEAKE LIGHT NOT AVBL BUOY 44014 0900 74 78 360/ 10/ 12 1015.2 2/ 8 2/ 8 DUCK 0900 75 75 30/ 7/ 8 1014.9 2E DUCK 0900 N/A 2/ 8 OREGON INLET 0900 73 78 30/ 5/ 8 1015.3 BUOY 44095 0900 78 N/A 3/ 8 20E OREGON INLET NOT AVBL HATTERAS CG 0900 75 80 50/ 6/ 8 1015.4 DIAMOND BUOY 0900 VRB 12/ 16 1014.5 3/ 8 2/ 8 CAPE LOOKOUT 0800 77 50/ 12/ 14 1014.5 BEAUFORT LAB 0900 73 82 30/ 4/ 5 1014.4 30 SE NEW RIVER 0800 79 81 60/ 12/ 14 1014.4 5 SE WRIGHTSVILL 0800 76 81 80/ 10/ 14 N/A BUOY 41002 0840 76 80 290/ 14/ 17 1013.6 6/ 7 5/ 7 BUOY 41004 0900 81 84 60/ 8/ 10 1013.3 2/ 8 2/ 8 $$

USA.gov is the U.S. government's official web portal to all federal, state and local government web resources and services.